Location: Ailingen
(47.6833°N, 9.5000°E)
Time: 05:12:59
(UTC+00:00)

Cosmos 2058 - Pass Details

Date: 18 November 2025
Orbit: 529 x 541 km, 82.5° (Epoch: 04 December)

Event Time Altitude Azimuth Distance (km) Brightness Sun altitude
Rises 17:27:33 0° 348° (NNW) 2,705 6.4 -17.6°
Reaches altitude 10° 17:29:43 10° 346° (NNW) 1,811 5.5 -17.9°
Maximum altitude 17:33:41 69° 264° (W) 583 3.1 -18.6°
Drops below altitude 10° 17:37:37 10° 180° (S) 1,801 5.5 -19.2°
Sets 17:39:46 0° 178° (S) 2,689 6.4 -19.6°
